Regional Weather Roundup
Issued by NWS Columbia, SC

Home | Current Version | Previous Version | Text Only | Print | Product List | Glossary On
Versions: 1 2 3 4 5 6 7 8 9 10 11 12 13 14 15 16 17 18 19 20 21 22 23 24 25 26 27
000
ASUS42 KCAE 270210
RWRCAE
REGIONAL WEATHER ROUNDUP
NATIONAL WEATHER SERVICE COLUMBIA SC
1000 PM EDT THU MAY 26 2016

NOTE: "FAIR" INDICATES FEW OR NO CLOUDS BELOW 12,000 FEET WITH NO
SIGNIFICANT WEATHER AND/OR OBSTRUCTIONS TO VISIBILITY.

NOT ALL STATIONS ARE QUALITY CONTROLLED BY THE NATIONAL
WEATHER SERVICE. USE DATA WITH CAUTION...ESPECIALLY
DEWPOINT OBSERVATIONS.

SCZ001>056-GAZ040-063>065-077-270300-
...UPSTATE SOUTH CAROLINA...

CITY           SKY/WX    TMP DP  RH WIND       PRES   REMARKS
ANDERSON       CLOUDY    74  64  71 CALM      30.10S
LIBERTY        PTCLDY    70  66  89 CALM      30.11S
SPARTANBURG    MOCLDY    72  64  78 CALM      30.11
CLEMSON        PTCLDY    75  66  73 CALM      30.11F
GREENVILLE     CLEAR     76  59  55 CALM      30.13R
GREENWOOD      PTCLDY    72  65  78 CALM      30.13R
GREER          CLEAR     71  63  75 CALM      30.11R
ROCK HILL      CLEAR     76  63  64 S3        30.11R
CHESTER        PTCLDY    72  61  68 SE6       30.12R
LAURENS        CLEAR     72  64  78 CALM      30.11


...CENTRAL SOUTH CAROLINA...

CITY           SKY/WX    TMP DP  RH WIND       PRES   REMARKS
COLUMBIA APT   CLEAR     79  63  57 S8        30.10R
COLUMBIA OWENS CLEAR     79  63  57 CALM      30.12R
ORANGEBURG     CLEAR     75  57  53 S6        30.13R
SUMTER SHAW    CLEAR     76  60  57 S8        30.10R
NEWBERRY       PTCLDY    77  64  65 S5        30.14R
AIKEN          FAIR      73  63  68 S6        30.16
BARNWELL       FAIR      79  63  57 S7        30.13
MANNING        FAIR      72  57  60 S3        30.14R
LANCASTER      CLEAR     73  66  78 SE3       30.11
WINNSBORO      CLEAR     75  63  64 SE6       30.11R


...EASTERN AND COASTAL SOUTH CAROLINA...

CITY           SKY/WX    TMP DP  RH WIND       PRES   REMARKS
N MYRTLE BCH   CLEAR     75  66  73 S7        30.15R
CONWAY         MOCLDY    70  64  83 CALM      30.15R
MARION         FAIR      72  59  64 S7        30.14R
HARTSVILLE     FAIR      73  61  64 S6        30.12R
FLORENCE       CLEAR     75  59  57 S7        30.14R
DARLINGTON     CLEAR     76  61  59 S10       30.13R
CHARLESTON APT CLEAR     73  63  70 S5        30.14R
MOUNT PLEASANT FAIR      70  64  83 CALM      30.15R
WALTERBORO     CLEAR     73  61  64 CALM      30.15R
BEAUFORT       CLEAR     75  66  73 VRB3      30.14R


...EASTERN GEORGIA...

CITY           SKY/WX    TMP DP  RH WIND       PRES   REMARKS
AUGUSTA BUSH F PTCLDY    77  64  64 SE7       30.11R
AUGUSTA DANIEL CLOUDY    81  63  54 VRB6      30.12R
THOMSON        CLEAR     75  69  83 CALM      30.15R
WASHINGTON     FAIR      79  68  69 S3        30.11R
CLAXTON        FAIR      70  60  69 CALM      30.14R
SYLVANIA       CLEAR     75  60  58 CALM      30.15R
STATESBORO     CLEAR     75  59  58 SE5       30.13R
SAVANNAH       CLEAR     74  63  68 SE5       30.14R


...SOUTHERN NORTH CAROLINA...

CITY           SKY/WX    TMP DP  RH WIND       PRES   REMARKS
CHARLOTTE      PTCLDY    75  62  64 S6        30.11R
WADESBORO      CLEAR     74  60  60 SE5       30.10R
ROCKINGHAM     CLEAR     77  64  65 SE8       30.11R
RUTHERFORDTON  PTCLDY    69  68  96 CALM      30.13S
ASHEVILLE      CLEAR     67  62  84 S3        30.17S

$$




USA.gov is the U.S. government's official web portal to all federal, state and local government web resources and services.